Weather History for KPEA - March, 2013

Change the Weather History Date:

Thursday, March 7, 2013

  Actual Average (KOXV) Record (KOXV)
Temperature  
Mean Temperature 24 °F -  
Max Temperature 32 °F 45 °F 74 °F (1987)
Min Temperature 15 °F 24 °F 0 °F (1960)
Degree Days  
Heating Degree Days 42    
Moisture  
Dew Point 20 °F    
Average Humidity 83    
Maximum Humidity 93    
Minimum Humidity 68    
Precipitation  
Precipitation 0.00 in - - ()
Sea Level Pressure  
Sea Level Pressure 30.34 in    
Wind  
Wind Speed 4 mph (ESE)    
Max Wind Speed 12 mph    
Max Gust Speed 17 mph    
Visibility 6 miles    
Events      
Averages and records for this station are not official NWS values.
T = Trace of Precipitation, MM = Missing Value Source: NWS Daily Summary

Daily Weather History Graph

Daily Weather History Graph

Search for Another Location

Airport or City:

Trip Planner

Search our weather history database for the weather conditions in past years. The results will help you decide how hot, cold, wet, or windy it might be!

Date:

Astronomy

Mar. 07, 2013 Rise Set
Actual Time 6:36 AM CST 6:09 PM CST
Civil Twilight 6:08 AM CST 6:37 PM CST
Nautical Twilight 5:36 AM CST 7:09 PM CST
Astronomical Twilight 5:04 AM CST 7:41 PM CST
Moon 3:38 AM CST (3/7) 1:55 PM CST (3/7)
Length of Visible Light 12h 28m
Length of Day
11h 33m
Waning Crescent, 20% of the Moon is Illuminated
Mar 7
Waning Crescent
Mar 11
New
Mar 19
First Quarter
Mar 27
Full
Apr 2
Last Quarter

Hourly Weather History & Observations

Time (CST) Temp. Windchill Dew Point Humidity Pressure Visibility Wind Dir Wind Speed Gust Speed Precip Events Conditions
12:15 AM 19.4 °F - 17.6 °F 93% 30.36 in 10.0 mi Calm Calm - N/A   Clear
12:35 AM 19.8 °F - 17.6 °F 91% 30.36 in 10.0 mi Calm Calm - N/A   Clear
12:55 AM 19.4 °F - 17.6 °F 93% 30.36 in 7.0 mi Calm Calm - N/A   Clear
1:15 AM 19.2 °F - 17.4 °F 93% 30.37 in 7.0 mi Calm Calm - N/A   Clear
1:35 AM 19.4 °F - 17.6 °F 93% 30.37 in 7.0 mi Calm Calm - N/A   Clear
1:55 AM 17.8 °F - 16.0 °F 93% 30.38 in 5.0 mi Calm Calm - N/A   Clear
2:15 AM 17.4 °F - 15.8 °F 93% 30.37 in 5.0 mi Calm Calm - N/A   Scattered Clouds
2:35 AM 17.6 °F - 16.0 °F 93% 30.37 in 5.0 mi Calm Calm - N/A   Scattered Clouds
2:55 AM 18.5 °F - 16.9 °F 93% 30.35 in 7.0 mi Calm Calm - N/A   Clear
3:15 AM 18.1 °F 12.9 °F 16.3 °F 93% 30.34 in 7.0 mi ENE 3.5 mph - N/A   Clear
3:35 AM 17.6 °F - 16.0 °F 93% 30.35 in 7.0 mi Calm Calm - N/A   Clear
3:55 AM 17.6 °F 12.3 °F 15.8 °F 93% 30.35 in 7.0 mi East 3.5 mph - N/A   Clear
4:15 AM 17.2 °F - 15.4 °F 93% 30.35 in 7.0 mi Calm Calm - N/A   Clear
4:35 AM 17.6 °F 12.3 °F 15.8 °F 93% 30.36 in 7.0 mi ENE 3.5 mph - N/A   Clear
4:55 AM 16.7 °F 11.2 °F 14.9 °F 93% 30.34 in 5.0 mi East 3.5 mph - N/A   Clear
5:15 AM 15.8 °F 8.6 °F 14.0 °F 93% 30.35 in 5.0 mi ESE 4.6 mph - N/A   Clear
5:35 AM 15.4 °F 9.8 °F 13.6 °F 93% 30.35 in 5.0 mi ESE 3.5 mph - N/A   Clear
5:55 AM 15.4 °F 8.1 °F 13.8 °F 93% 30.35 in 4.0 mi ESE 4.6 mph - N/A   Clear
6:15 AM 15.4 °F - 13.6 °F 93% 30.36 in 4.0 mi Calm Calm - N/A   Clear
6:35 AM 15.4 °F 8.1 °F 13.6 °F 93% 30.36 in 4.0 mi ESE 4.6 mph - N/A   Clear
6:55 AM 15.6 °F 10.0 °F 13.8 °F 93% 30.37 in 2.5 mi ESE 3.5 mph - N/A   Mist
7:15 AM 15.8 °F - 14.0 °F 93% 30.37 in 2.5 mi Calm Calm - N/A   Mist
7:35 AM 17.4 °F - 15.6 °F 93% 30.38 in 3.0 mi Calm Calm - N/A   Mist
7:55 AM 19.0 °F 13.9 °F 17.4 °F 93% 30.39 in 3.0 mi ESE 3.5 mph - N/A   Mist
8:15 AM 19.9 °F 12.1 °F 18.1 °F 93% 30.38 in 3.0 mi SE 5.8 mph - N/A   Mist
8:35 AM 21.7 °F 15.5 °F 19.9 °F 93% 30.39 in 4.0 mi SE 4.6 mph - N/A   Clear
8:55 AM 23.0 °F 15.8 °F 20.7 °F 91% 30.38 in 4.0 mi ESE 5.8 mph - N/A   Scattered Clouds
9:15 AM 23.2 °F 17.2 °F 20.1 °F 88% 30.39 in 5.0 mi ESE 4.6 mph - N/A   Mostly Cloudy
9:35 AM 23.9 °F 15.8 °F 20.8 °F 88% 30.38 in 4.0 mi SE 6.9 mph - N/A   Overcast
9:55 AM 24.6 °F 16.7 °F 20.7 °F 85% 30.38 in 4.0 mi SSE 6.9 mph - N/A   Mostly Cloudy
10:15 AM 24.8 °F 16.9 °F 20.3 °F 83% 30.39 in 4.0 mi South 6.9 mph - N/A   Haze
10:35 AM 25.3 °F 16.7 °F 20.3 °F 81% 30.38 in 4.0 mi SSE 8.1 mph - N/A   Haze
10:55 AM 26.1 °F 17.6 °F 20.5 °F 79% 30.37 in 4.0 mi SSE 8.1 mph - N/A   Haze
11:15 AM 26.4 °F 18.0 °F 20.8 °F 79% 30.37 in 4.0 mi SSE 8.1 mph - N/A   Haze
11:35 AM 27.5 °F 19.3 °F 21.0 °F 77% 30.36 in 5.0 mi SSE 8.1 mph - N/A   Haze
11:55 AM 28.2 °F 20.2 °F 21.6 °F 76% 30.36 in 5.0 mi ESE 8.1 mph - N/A   Haze
12:15 PM 28.8 °F 20.9 °F 21.7 °F 75% 30.36 in 5.0 mi ESE 8.1 mph - N/A   Haze
12:35 PM 29.3 °F 20.8 °F 21.9 °F 74% 30.35 in 4.0 mi ESE 9.2 mph - N/A   Haze
12:55 PM 29.8 °F 21.5 °F 21.9 °F 72% 30.34 in 5.0 mi ESE 9.2 mph - N/A   Haze
1:15 PM 30.4 °F 22.9 °F 21.7 °F 70% 30.33 in 7.0 mi East 8.1 mph - N/A   Clear
1:35 PM 30.6 °F 21.8 °F 21.2 °F 68% 30.32 in 7.0 mi ESE 10.4 mph - N/A   Clear
1:55 PM 30.9 °F 22.8 °F 22.5 °F 71% 30.31 in 7.0 mi ESE 9.2 mph - N/A   Clear
2:15 PM 31.5 °F 23.5 °F 22.3 °F 69% 30.31 in 7.0 mi ESE 9.2 mph - N/A   Clear
2:35 PM 32.0 °F 24.8 °F 22.8 °F 69% 30.31 in 10.0 mi ESE 8.1 mph - N/A   Clear
2:55 PM 32.0 °F 24.2 °F 23.4 °F 70% 30.31 in 7.0 mi East 9.2 mph - N/A   Clear
3:15 PM 32.2 °F 23.2 °F 23.4 °F 70% 30.31 in 7.0 mi East 11.5 mph - N/A   Clear
3:35 PM 32.0 °F 23.6 °F 23.2 °F 70% 30.30 in 7.0 mi East 10.4 mph - N/A   Clear
3:55 PM 32.0 °F 23.0 °F 22.8 °F 69% 30.30 in 7.0 mi ESE 11.5 mph - N/A   Clear
4:15 PM 32.4 °F 24.0 °F 23.0 °F 68% 30.29 in 7.0 mi East 10.4 mph - N/A   Clear
4:35 PM 32.2 °F 23.8 °F 23.0 °F 69% 30.29 in 10.0 mi ESE 10.4 mph - N/A   Clear
4:55 PM 32.4 °F 23.5 °F 23.0 °F 68% 30.29 in 10.0 mi ESE 11.5 mph 17.3 mph N/A   Clear
5:15 PM 32.0 °F 23.6 °F 23.0 °F 69% 30.29 in 7.0 mi East 10.4 mph 16.1 mph N/A   Clear
5:35 PM 31.6 °F 23.1 °F 23.0 °F 70% 30.29 in 10.0 mi ESE 10.4 mph - N/A   Clear
5:55 PM 31.1 °F 23.7 °F 23.0 °F 72% 30.31 in 10.0 mi ESE 8.1 mph - N/A   Clear
7:35 PM 28.2 °F 19.5 °F 23.0 °F 81% 30.31 in 7.0 mi ESE 9.2 mph - N/A   Clear
7:55 PM 27.9 °F 17.8 °F 22.8 °F 81% 30.30 in 7.0 mi ESE 11.5 mph - N/A   Clear
8:15 PM 27.5 °F 17.4 °F 22.6 °F 82% 30.30 in 7.0 mi ESE 11.5 mph - N/A   Clear
8:35 PM 27.3 °F 19.1 °F 22.1 °F 81% 30.30 in 7.0 mi ESE 8.1 mph - N/A   Clear
8:55 PM 27.1 °F 18.9 °F 21.9 °F 81% 30.30 in 7.0 mi ESE 8.1 mph - N/A   Clear
9:15 PM 27.1 °F 18.2 °F 21.9 °F 81% 30.31 in 7.0 mi ESE 9.2 mph - N/A   Clear
9:35 PM 27.0 °F 18.0 °F 21.7 °F 81% 30.32 in 7.0 mi ESE 9.2 mph - N/A   Clear
9:55 PM 27.0 °F 18.7 °F 21.7 °F 81% 30.32 in 7.0 mi ESE 8.1 mph - N/A   Clear
10:15 PM 26.6 °F 19.1 °F 21.2 °F 80% 30.33 in 7.0 mi ESE 6.9 mph - N/A   Clear
10:35 PM 26.4 °F 18.0 °F 21.4 °F 81% 30.33 in 7.0 mi ESE 8.1 mph - N/A   Clear
10:55 PM 26.2 °F 18.6 °F 21.2 °F 81% 30.32 in 7.0 mi ESE 6.9 mph - N/A   Clear
11:15 PM 26.2 °F 17.1 °F 21.4 °F 82% 30.32 in 7.0 mi ESE 9.2 mph - N/A   Clear
11:35 PM 26.1 °F 16.8 °F 21.2 °F 82% 30.32 in 7.0 mi ESE 9.2 mph - N/A   Clear
11:55 PM 26.2 °F 17.1 °F 21.7 °F 83% 30.31 in 7.0 mi ESE 9.2 mph - N/A   Clear